Montana Women's Run — Results

Billings, Montana, United States

1st Place

Jaylyn Hallgrimson

2 Mile

12:27

2nd Place

Jade Hallgrimson

2 Mile

12:30

3rd Place

Ali Keith

2 Mile

12:53

# Bib Name Gender Gender Rank Age Group AG Rank Finish Time Pace
301 3772 Polly Mulvaney Female F 50-54 13 21:34 10:47 /mi
302 2772 K. Waters Female 21:36 10:48 /mi
303 5770 R. Brandt Female 21:36 10:48 /mi
304 5771 Aaron Redland Female F 35-39 27 21:37 10:48 /mi
305 342 Lynn Boyer Female F 45-49 14 21:37 10:49 /mi
306 2469 Jasmine Walks Over Ice Female F 20-24 17 21:38 10:49 /mi
307 557 Kathleen Wagner Female F 55-59 6 21:39 10:49 /mi
308 282 Amelia Campbell Female F 25-29 20 21:40 10:50 /mi
309 5494 Amorasia Bryant Female F 25-29 21 21:40 10:50 /mi
310 5442 Shanaya Spang Female F 20-24 18 21:41 10:50 /mi
311 4629 Norma Romersa Female F 25-29 22 21:41 10:51 /mi
312 418 Karla Aus Female F 50-54 14 21:44 10:52 /mi
313 5096 Melissa Townsend Female F 40-44 20 21:45 10:53 /mi
314 320 N. Deputee Female 21:49 10:54 /mi
315 5171 MARISSA LAFRANIER Female F 13-15 46 21:49 10:54 /mi
316 5610 Anita Larner Female F 50-54 15 21:50 10:55 /mi
317 5473 Teri Totten Female F 55-59 7 21:51 10:55 /mi
318 289 T. Duncan Female 21:52 10:56 /mi
319 548 Jamie Norby Female F 25-29 23 21:53 10:57 /mi
320 326 Amy Angel Female F 40-44 21 21:54 10:57 /mi
321 5689 L. Old Elk Female 21:54 10:57 /mi
322 581 Hannah Zwemke Female F 20-24 19 21:54 10:57 /mi
323 459 Ellie Loran Female F 16-19 32 21:54 10:57 /mi
324 348 Brianna Scanson Female F 16-19 33 21:55 10:58 /mi
325 546 Chelsie Wharton Female F 25-29 24 21:55 10:58 /mi
326 3331 M. Murphy Female 21:56 10:58 /mi
327 347 Marcie Scanson Female F 50-54 16 21:56 10:58 /mi
328 4851 G. Norman Female 21:56 10:58 /mi
329 464 MARY PEET Female F 70-74 1 21:59 10:59 /mi
330 547 Kate Hofer Female F 25-29 25 21:59 10:59 /mi
331 420 Tempe Connell Female F 45-49 15 22:00 11:00 /mi
332 545 Hillary Loney Female F 25-29 26 22:00 11:00 /mi
333 421 Kylie Fetsch Female F 20-24 20 22:01 11:00 /mi
334 4043 K. Fleury Female 22:01 11:01 /mi
335 119 Katie Tatum Female F 40-44 22 22:02 11:01 /mi
336 489 Brenda Boone Female F 55-59 8 22:03 11:02 /mi
337 372 Amber Lowe Female F 40-44 23 22:05 11:02 /mi
338 5681 F. Alden Female 22:07 11:04 /mi
339 3856 Chris Fleury Female F 60-64 8 22:08 11:04 /mi
340 4704 Alison Snyder Female F 20-24 21 22:08 11:04 /mi
341 346 Carissa Dewey Female F 20-24 22 22:09 11:05 /mi
342 4755 Abby Baker Female F 25-29 27 22:11 11:06 /mi
343 1385 Marguerite Bennett Female F 20-24 23 22:12 11:06 /mi
344 3555 Jonnae Slade Female F 30-34 25 22:12 11:06 /mi
345 1386 PATRICIA WHITLOCK Female F 55-59 9 22:13 11:06 /mi
346 1345 Lisa Harrell Female F 45-49 16 22:13 11:07 /mi
347 3562 Whitney Blunt Female F 30-34 26 22:15 11:08 /mi
348 1424 Debbie Dobson Female F 45-49 17 22:16 11:08 /mi
349 287 Erin Brester Female F 20-24 24 22:17 11:08 /mi
350 317 Sarah Shaw Female F 20-24 25 22:18 11:09 /mi

Showing 301–350 of 4257 results